Location: B�rgermoos
(47.6500°N, 9.0667°E)
Time: 18:42:35
(UTC+00:00)

Vanguard 2 Rocket - Pass Details

Date: 11 August 2021
Orbit: 555 x 3324 km, 32.9° (Epoch: 15 September)

Event Time Altitude Azimuth Distance (km) Brightness Sun altitude
Rises 04:44:50 0° 240° (WSW) 4,301 9.7 4.0°
Reaches altitude 10° 04:49:18 10° 222° (SW) 2,823 8.9 4.7°
Maximum altitude 04:53:16 17° 184° (S) 1,962 8.5 5.3°
Drops below altitude 10° 04:56:24 10° 143° (SE) 2,136 9.1 5.8°
Sets 04:59:08 0° 121° (ESE) 2,861 10.2 6.3°
